THORAD AGENA D DEB

Satellite information

Favourite Embed

Satellite Type and Status

DEBRISIN ORBIT

Key statistics

Satellite THORAD AGENA D DEB at a glance.

Uptime

20119

Days in orbit

Revolutions

≈ 13.6

Per day

Orbit

SSO

Sun Synchronous Orbit

Inclination

99.9

Latest

Satellite identification and parameters

Extended collection of information and parameters for THORAD AGENA D DEB.

Object identification

Identified? True

Debris? True

Object name: THORAD AGENA D DEB

International designator: 1970-025EP

Object number (NORAD): 4859

Object ID (CCSDS): 4859

Country: UNITED STATES OF AMERICA (US)

Current information (Y/N): Y

RCS size: SMALL

Orbital parameters

Period: 105.835 minutes

Inclination: 99.9473 deg

SMA: 7411.624 km

Apoapsis: 1068.91 km

Periapsis: 998.068 km

RAAN: 214.1577 deg

Eccentricy: 0.0047791

Argument of periapsis: 232.2787 deg

Mean anomaly: 157.3015 deg

Mean motion: 13.60607008 rev/day

Mean motion (dot): 0.00001029 rev/day2

B* drag term: 0.0014171 1/REarth

Two-line elements (TLE)

Creation date: May 8, 2025, 3:01 a.m.

Reference frame: TEME

Reference center: EARTH

Epoch: May 7, 2025, 4:23 a.m. UTC

TLE line 0: 0 THORAD AGENA D DEB

TLE line 1: 1 04859U 70025EP 25127.18299465 .00001029 00000-0 14171-2 0 9999

TLE line 2: 2 04859 99.9473 214.1577 0047791 232.2787 157.3015 13.60607008712491

Live tracking on map

Real-time ground track for satellite THORAD AGENA D DEB.

In-orbit conjunctions

A list of the most updated potential collisions computed for object THORAD AGENA D DEB.

Target Orbit TCA Probability of collision Miss distance Type
COSMOS 1375 DEB LEO 2024-09-06 03:29:25 0.0002459008 152.0 (m) DEBRIS
FENGYUN 1C DEB SSO 2024-08-31 12:56:48 0.0002054556 46.0 (m) DEBRIS

Associated space launch

Meteorological research and development satellite

THORAD AGENA D DEB was lifted into orbit during the mission ‘Thorad SLV-2G Agena D | Nimbus 4’, on board a Thorad SLV-2G Agena D space rocket.

The launch took place on April 8, 1970, 8:17 a.m. from Space Launch Complex 2E.

For more information about the launch, click the button.

Launch to space Thorad SLV-2G Agena D | Nimbus 4
Thorad SLV-2G Agena D | Nimbus 4

Agency: N/A

Status: Launch Successful

Launch date: April 8, 1970, 8:17 a.m. UTC

Rocket: Thorad SLV-2G Agena D

Launch pad: Space Launch Complex 2E

Location: Vandenberg SFB, CA, USA

...

Latest news about this satellite

There are no fresh news available about this satellite. Check back as we update our databases every day.


Newsletter sign-up

Weekly statistics, charts and insights to help you stay on top of the space industry.